BLACKJACK ACES-2

导读

BLACKJACK ACES-2是美国发射的一颗试验卫星,于2023年6月12日08:00发射升空,隶属于美国DARPA的“黑杰克”(Blackjack)低轨星座项目,该项目旨在开发由小型卫星组成的低轨军用卫星星座,验证低轨卫星承担军事任务的可行性与实用性,ACES-2主要承担相关技术演示验证任务,为后续低轨军事星座部署积累数据。

基本信息
目录编号:
56955
目录名称:
BLACKJACK ACES-2
国际标识:
2023-084Z
轨道中心:
EARTH
卫星名称:
BLACKJACK ACES-2
卫星全名:
--
卫星状态:
在轨 (已飞行1181 天)
发射日期:
2023-06-12 UTC
国别 :
美国 (US)
星等 :
--
轨道信息
数据来源 国际轨道数据
星历时间: 2026-09-05T10:14:04+0800
10小时前
查看轨道信息
半长轴: 6887.938km
偏心率: 0.0002246
轨道倾角: 97.631°
近地点辐角 78.581°
升交点赤经 24.057°
平近点角 281.568°
近地点: 508.253km
远地点: 511.349km
周期: 94.819分钟
每日圈数: 15.186893
详细信息
使用方式:
暂无
2D轨道图
3D轨道图
轨道高度分析图
轨道倾角分析图
轨道综合分析图
查看轨道综合分析图
交会数据列表
事件ID 空间交会对象 最接近时刻(TCA) 交会距离 交会风险概率(CRP) 交会风险指数(CRI) 操作
CDM_260907-140205-695506-392721
2026-09-07T
14:02:25+0000
2.906 km
极远距离
1.381295E-6 低风险 0.38